www.pogodaiklimat.ru

Погода и климат >> Архив погоды >> Россия >> Дагестан >> Сергокала


ПОГОДА в Сергокале

  • Прогноз погоды в Сергокале
  • Монитор погоды в Сергокале

АРХИВ ПОГОДЫ в Сергокале

Время (UTC), дата Ветер
(напр.,м/с)
 
Видим.   Явления Облачность Т
(С)
Тd
(С)
f
(%)
Тe
(С)
Тes
(С)
Комфортность P
(гПа)
Po
(гПа)
Тmin
(С)
Tmax
(С)
R
(мм)
R24
(мм)
S
(см)
15 13.07 Ю 2 20 км 9/9 600 м
[Sc]
+18.5 +13.9 75 +20 +20 1009.2 950.6 +20.5 0.6
18 13.07 ЮЗ 2 10 км 10/10 600 м
[Sc]
+16.6 +14.2 86 +17 +17 1010.9 951.9
21 13.07 СЗ 1 4000 м слаб. дождь 10/10 600 м
[Frnb Ns]
+16.1 +14.4 90 +17 +17 1010.2 951.1
00 14.07 СЗ 1 4000 м слаб. дождь 10/10 600 м
[Frnb Ns]
+15.2 +14.2 94 +16 +16 1010.6 951.3
03 14.07 С 3 4000 м слаб. дождь 10/10 600 м
[Frnb Ns]
+14.1 +13.0 93 +13 +13 1010.6 951.0 +14.1 21
06 14.07 ЮВ 1 20 км в посл. час дождь 9/9 300 м
[St]
+16.4 +14.1 86 +17 +19 1010.1 951.0
09 14.07 С 3 20 км 9/8 600 м
[Cu med, cong Ac trans]
+19.8 +14.5 71 +22 +24 комфорт 1009.2 950.9
12 14.07 С 5 10 км 9/9 600 м
[Cu Sc As trans]
+28.2 +14.3 43 +30 +31 жарко 1010.4 951.7
15 14.07 С 2 20 км 8/8 600 м
[Sc diur, vesp]
+18.4 +10.9 62 +19 +20 1011.6 952.8 +19.9 2
18 14.07 ЮЗ 1 10 км ясно +14.9 +12.1 83 +15 +15 1011.9 952.4
21 14.07 З 2 10 км ясно +14.5 +11.5 82 +14 +14 1010.7 951.1
00 15.07 ЮЗ 3 10 км ясно +14.9 +10.4 74 +14 +14 1009.0 949.6
03 15.07 ЮЗ 2 20 км 1/0
[Ac trans]
+17.6 +11.6 68 +18 +20 1008.3 949.5 +14.1
06 15.07 ЮВ 7-10
{10}
20 км 1/1 600 м
[Sc]
+21.3 +12.1 56 +23 +27 комфорт 1006.7 948.7
09 15.07 ЮВ 7-10
{11}
20 км 8/8 600 м
[Sc]
+21.7 +14.7 64 +25 +26 комфорт 1004.9 947.2
12 15.07 ЮВ 7
{11}
20 км 10/10 600 м
[Sc]
+19.0 +16.3 84 +20 +20 1004.4 946.3
15 15.07 Ю 5 20 км 10/10 600 м
[Sc]
+19.8 +16.2 80 +22 +22 комфорт 1003.1 945.2 +21.9
18 15.07 ЮЗ 3 10 км 9/9 600 м
[Sc]
+17.9 +16.2 90 +18 +18 1004.0 945.7
21 15.07 Ю 1 10 км 10/10 600 м
[Sc]
+17.2 +16.2 94 +18 +18 1003.6 945.1
00 16.07 З 2 10 км 10/10 600 м
[Sc]
+17.1 +15.6 91 +17 +17 1004.2 945.7
03 16.07 СЗ 1 20 км 6/4 600 м
[Sc]
+17.9 +15.8 88 +19 +20 1004.7 946.3 +16.1
06 16.07 С 1 20 км 3/3 600 м
[Cu med, cong]
+23.3 +16.5 66 +28 +39 душно 1003.1 945.8
09 16.07 СВ 2 20 км 6/6 600 м
[Sc]
+24.6 +17.2 63 +28 +36 душно 1003.1 946.1
12 16.07 ЮВ 1 20 км 8/8 600 м
[Sc]
+26.1 +17.7 60 +30 +33 душно 1002.7 946.0
15 16.07 В 2 20 км ясно +24.4 +17.4 65 +28 +29 душно 1003.2 946.2 +27.0
18 16.07 ЮЗ 2 10 км ясно +20.0 +17.3 84 +23 +23 комфорт 1005.7 947.6
21 16.07 СЗ 2 10 км ясно +21.6 +15.0 66 +25 +25 комфорт 1005.7 947.9
00 17.07 З 2 10 км ясно +19.5 +14.6 73 +22 +22 комфорт 1007.1 948.8
03 17.07 З 2 20 км ясно +23.2 +14.9 60 +27 +29 душно 1006.8 949.3 +18.8
06 17.07 С 6 20 км 1/1 600 м
[Sc]
+25.1 +15.8 56 +28 +33 жарко 1006.8 949.6
09 17.07 С 4 20 км 1/1 600 м
[Sc]
+26.8 +14.9 48 +29 +41 жарко 1006.0 949.2
12 17.07 С 3 20 км 8/5 600 м
[Sc Ac trans]
+26.4 +14.7 49 +29 +32 жарко 1006.0 949.1
15 17.07 В 2 20 км 9/9 600 м
[Sc]
+24.8 +14.3 52 +27 +27 жарко 1006.4 949.2 +27.1
18 17.07 ЮЗ 1 10 км 1/1 600 м
[Sc]
+21.1 +15.8 72 +24 +24 комфорт 1007.4 949.4
21 17.07 ЮЗ 2 10 км ясно +20.0 +14.4 70 +23 +23 комфорт 1007.2 949.0
00 18.07 ЮЗ 4 10 км 1/0
[Ac trans]
+19.5 +14.2 71 +21 +21 комфорт 1006.7 948.4
03 18.07 З 2 20 км ясно +21.7 +14.3 63 +25 +26 комфорт 1006.7 948.9 +19.3
06 18.07 В 2 10 км ясно +27.1 +12.7 41 +29 +41 жарко 1005.1 948.3
09 18.07 В 3 20 км ясно +29.1 +12.2 35 +30 +46 жарко 1004.0 947.6
12 18.07 В 3 20 км ясно +28.8 +13.0 38 +30 +39 жарко 1003.3 946.9
15 18.07 СВ 2 20 км ясно +26.7 +12.4 41 +28 +29 жарко 1004.4 947.6 +29.3
18 18.07 З 2 10 км ясно +21.9 +12.9 57 +25 +25 комфорт 1007.2 949.3
21 18.07 ЮЗ 3 10 км ясно +20.5 +11.9 58 +23 +23 комфорт 1008.2 950.0
00 19.07 З 2 10 км 3/0
[Ac lent]
+24.6 +12.5 47 +26 +26 жарко 1008.0 950.6
03 19.07 СЗ 1 20 км 4/4 600 м
[Sc]
+25.0 +13.6 49 +27 +28 жарко 1008.9 951.5 +20.5
06 19.07 С 6 20 км ясно +28.5 +11.3 34 +29 +34 жарко 1008.8 952.0
09 19.07 С 4 20 км 1/1 600 м
[Sc]
+29.4 +12.6 36 +31 +42 жарко 1009.6 953.0
12 19.07 СВ 3 20 км 3/1 600 м
[Sc Ci fib]
+29.5 +11.0 32 +30 +38 жарко 1009.8 953.2
15 19.07 СВ 2 20 км 1/1 600 м
[Sc]
+27.7 +9.6 32 +28 +29 жарко 1010.8 953.8 +29.6
18 19.07 ЮЗ 2 10 км ясно +22.3 +13.0 56 +25 +25 комфорт 1013.0 954.9
21 19.07 ЮЗ 1 10 км 10/6 600 м
[Sc Ac trans]
+23.7 +12.9 51 +26 +26 жарко 1013.2 955.3
00 20.07 ЮЗ 3 10 км 3/1 600 м
[Sc Ac trans]
+20.6 +12.9 61 +23 +23 комфорт 1014.1 955.6
03 20.07 штиль 0 20 км ясно +22.7 +14.5 60 +26 +28 жарко 1015.3 957.2 +20.2
06 20.07 Ю 1 20 км 10/10 600 м
[Sc]
+26.4 +14.5 48 +29 +29 жарко 1015.4 958.0
09 20.07 С 3 20 км 9/3 600 м
[Sc Ac trans]
+27.8 +14.6 44 +30 +36 жарко 1015.0 957.9
12 20.07 В 3 20 км 6/3 600 м
[Sc Ac trans]
+27.8 +14.4 44 +30 +35 жарко 1015.2 958.0

 

Местоположение метеостанции Сергокала (Дагестан, Россия): широта 42.45 долгота 47.67 высота над уровнем моря 518 м.

В архиве по умолчанию представлена погода в Сергокале за последнюю неделю. Архивные данные за месяц целиком и за предыдущие месяцы, начиная с января 2011 года, Вы можете получить, выбрав интересующий диапазон дат из раскрывающегося списка и нажав кнопку "Ввод!".


*Определитесь, кто Вы:
робот инопланетянин человек

Внимание! Время в таблицах - всемирное. Для получения местного времени необходимо прибавить поправку, которая равна 3 ч.

Смотрите также архив погоды в соседних городах и на ближайших метеорологических станциях:

Погода в Изберге (Дагестан, Россия) (22 км)
Погода в Куппе (Дагестан, Россия) (47 км)
Погода в Гунибе (Дагестан, Россия) (58 км)
Погода в Кумухе (Дагестан, Россия) (58 км)
Погода в Буйнакске (Дагестан, Россия) (61 км)
Погода в Махачкале (Дагестан, Россия) (65 км)
Погода в Дербенте (Дагестан, Россия) (67 км)
Погода в Хунзахе (Дагестан, Россия) (81 км)
Погода в Касумкенте (Дагестан, Россия) (95 км)
Погода в Ахты (Дагестан, Россия) (109 км)

Пояснения к столбцам:

Ветер - указаны скорость ветра в м/с - средняя за 10 мин, порывы в срок и между сроками (в фигурных скобках) и направление, откуда дует ветер: С - северный, СВ - северо-восточный, В - восточный, ЮВ - юго-восточный, Ю - южный, ЮЗ - юго-западный, З - западный, СЗ - северо-западный.
Видимость - горизонтальная дальность видимости в метрах или километрах. При видимости от 1 до 10 км при отсутствии осадков обычно наблюдается дымка, при ухудшении видимости до 1 км и менее - туман. В сухую погоду видимость может ухудшаться дымом, пылью или мглою.
Явления - указаны атмосферные явления, наблюдавшиеся в срок или в последний час перед сроком; фигурными скобками обозначены явления, наблюдавшиеся между сроками (за 1-3 часа до срока); квадратными скобками обозначены град или гололедные отложения с указанием их диаметра в мм.
Облачность - указаны через наклонную черту общая и нижняя облачность в баллах и высота нижней границы облаков в метрах; квадратными скобками обозначены формы облаков: Ci - перистые, Cs - перисто-слоистые, Cc - перисто-кучевые, Ac - высококучевые, As - высокослоистые, Sc - слоисто-кучевые, Ns - слоисто-дождевые, Cu - кучевые, Cb - кучево-дождевые. Подробнее классификацию облаков см. в Атласе облаков (PDF).
T - Температура воздуха - температура, измеренная на высоте 2 м над землей.
Td - Температура точки росы - температура, при понижении до которой содержащийся в воздухе водяной пар достигнет насыщения.
f - Относительная влажность воздуха - влажноcть воздуха, измеренная на высоте 2 м над землей.
Te - Эффективная температура - температура, которую ощущает одетый по сезону человек в тени. Характеристика душности погоды. При расчете учитывается влияние влажности воздуха и скорости ветра на теплоощущения человека.
Tes - Эффективная температура на солнце - температура, которую ощущает человек, с поправкой на солнечный нагрев. Характеристика знойности погоды. Зависит от высоты солнца над горизонтом, облачности и скорости ветра. Ночью, в пасмурную погоду, а также при ветре 12 м/с и более поправка равна нулю.
P - Атмосферное давление - приведенное к уровню моря атмосферное давление.
Po - Атмосферное давление - измеренное на уровне метеостанции атмосферное давление.
Tmin - Минимальная температура - минимум температуры воздуха на высоте 2 м над землей.
Tmax - Максимальная температура - максимум температуры воздуха на высоте 2 м над землей.
R - Количество осадков - Количество выпавших осадков за период времени, мм. При наведении курсора мыши на число - период времени, за который выпало указанное количество осадков.
R24 - Количество осадков - Количество выпавших осадков за 24 часа, мм.
S - Снежный покров - Высота снежного покрова, см. При наведении курсора мыши на число - состояние снежного покрова и степень покрытия местности в баллах.